TimeCDT,TemperatureF,Dew PointF,Humidity,Sea Level PressureIn,VisibilityMPH,Wind Direction,Wind SpeedMPH,Gust SpeedMPH,PrecipitationIn,Events,Conditions,WindDirDegrees,DateUTC
12:15 AM,56.1,37.9,51,30.26,10.0,SE,4.6,-,N/A,,Scattered Clouds,140,2013-05-25 05:15:00
12:35 AM,55.9,38.3,52,30.26,10.0,SSE,5.8,-,N/A,,Mostly Cloudy,150,2013-05-25 05:35:00
12:55 AM,55.9,39.4,54,30.26,10.0,SSE,3.5,-,N/A,,Mostly Cloudy,150,2013-05-25 05:55:00
1:15 AM,55.0,39.9,57,30.26,10.0,Calm,Calm,-,N/A,,Overcast,0,2013-05-25 06:15:00
1:35 AM,54.0,40.6,61,30.26,10.0,Calm,Calm,-,N/A,,Light Drizzle,0,2013-05-25 06:35:00
1:55 AM,54.1,41.5,62,30.26,10.0,Calm,Calm,-,N/A,,Mostly Cloudy,0,2013-05-25 06:55:00
2:15 AM,54.0,42.4,65,30.26,10.0,Calm,Calm,-,N/A,,Overcast,0,2013-05-25 07:15:00
2:35 AM,52.2,42.6,70,30.26,10.0,Calm,Calm,-,N/A,,Overcast,0,2013-05-25 07:35:00
2:55 AM,51.8,44.1,75,30.26,10.0,Calm,Calm,-,N/A,,Light Drizzle,0,2013-05-25 07:55:00
3:15 AM,52.2,43.2,71,30.26,10.0,Calm,Calm,-,N/A,,Overcast,0,2013-05-25 08:15:00
3:35 AM,51.8,44.4,76,30.26,10.0,Calm,Calm,-,N/A,,Overcast,0,2013-05-25 08:35:00
3:55 AM,54.0,45.5,73,30.25,10.0,Calm,Calm,-,N/A,,Overcast,0,2013-05-25 08:55:00
4:15 AM,53.6,45.9,75,30.27,10.0,Calm,Calm,-,N/A,,Overcast,0,2013-05-25 09:15:00
4:35 AM,53.2,45.5,75,30.28,10.0,ENE,3.5,-,N/A,,Overcast,70,2013-05-25 09:35:00
4:55 AM,53.1,45.0,74,30.28,10.0,Calm,Calm,-,N/A,,Overcast,0,2013-05-25 09:55:00
5:15 AM,52.7,45.0,75,30.29,10.0,ESE,4.6,-,N/A,,Overcast,120,2013-05-25 10:15:00
5:35 AM,52.7,45.9,78,30.29,10.0,Calm,Calm,-,N/A,,Light Drizzle,0,2013-05-25 10:35:00
5:55 AM,51.8,46.8,83,30.29,10.0,South,3.5,-,N/A,,Overcast,170,2013-05-25 10:55:00
6:15 AM,53.2,46.0,77,30.30,10.0,Calm,Calm,-,N/A,,Overcast,0,2013-05-25 11:15:00
6:35 AM,53.1,46.0,77,30.30,10.0,East,3.5,-,N/A,,Overcast,90,2013-05-25 11:35:00
6:55 AM,53.6,45.5,74,30.29,10.0,East,4.6,-,N/A,,Overcast,100,2013-05-25 11:55:00
7:15 AM,54.5,45.5,72,30.30,10.0,ESE,4.6,-,N/A,,Overcast,110,2013-05-25 12:15:00
7:35 AM,54.7,45.5,71,30.30,10.0,ESE,4.6,-,N/A,,Overcast,120,2013-05-25 12:35:00
7:55 AM,55.0,45.5,70,30.29,10.0,ESE,6.9,-,N/A,,Overcast,120,2013-05-25 12:55:00
8:15 AM,55.8,45.7,69,30.29,10.0,SE,6.9,-,N/A,,Overcast,130,2013-05-25 13:15:00
8:35 AM,57.0,45.5,65,30.29,10.0,SE,9.2,-,N/A,,Overcast,130,2013-05-25 13:35:00
8:55 AM,57.4,45.5,65,30.29,10.0,SE,10.4,-,N/A,,Overcast,140,2013-05-25 13:55:00
9:15 AM,58.6,45.5,62,30.28,10.0,SSE,8.1,-,N/A,,Overcast,150,2013-05-25 14:15:00
9:35 AM,60.1,45.9,59,30.28,10.0,SSE,11.5,20.7,N/A,,Overcast,160,2013-05-25 14:35:00
9:55 AM,60.1,45.3,58,30.28,10.0,SSE,12.7,16.1,N/A,,Overcast,160,2013-05-25 14:55:00
10:15 AM,59.4,45.1,59,30.29,10.0,SE,8.1,-,N/A,,Overcast,140,2013-05-25 15:15:00
10:35 AM,59.2,44.4,58,30.29,10.0,SE,8.1,-,N/A,,Overcast,140,2013-05-25 15:35:00
10:55 AM,59.9,45.3,59,30.29,10.0,SE,8.1,-,N/A,,Overcast,130,2013-05-25 15:55:00
11:15 AM,59.9,44.2,56,30.28,10.0,SSE,11.5,-,N/A,,Overcast,150,2013-05-25 16:15:00
11:35 AM,59.9,44.2,56,30.29,10.0,SE,5.8,-,N/A,,Overcast,130,2013-05-25 16:35:00
11:55 AM,60.1,43.9,55,30.29,10.0,SE,11.5,18.4,N/A,,Overcast,140,2013-05-25 16:55:00
12:15 PM,59.9,43.5,55,30.29,10.0,SE,8.1,-,N/A,,Overcast,140,2013-05-25 17:15:00
12:35 PM,59.9,43.9,55,30.30,10.0,SE,6.9,-,N/A,,Overcast,130,2013-05-25 17:35:00
12:55 PM,60.8,43.5,53,30.30,10.0,ESE,11.5,16.1,N/A,,Overcast,120,2013-05-25 17:55:00
1:15 PM,61.5,44.1,53,30.29,10.0,SE,11.5,17.3,N/A,,Overcast,140,2013-05-25 18:15:00
1:35 PM,62.6,44.8,52,30.28,10.0,SSE,15.0,18.4,N/A,,Overcast,150,2013-05-25 18:35:00
1:55 PM,62.2,45.0,53,30.28,10.0,SE,12.7,16.1,N/A,,Overcast,140,2013-05-25 18:55:00
2:15 PM,61.3,45.0,55,30.29,10.0,SE,13.8,20.7,N/A,,Overcast,140,2013-05-25 19:15:00
2:35 PM,60.8,45.5,57,30.29,10.0,SE,8.1,16.1,N/A,,Overcast,140,2013-05-25 19:35:00
2:55 PM,60.8,45.3,57,30.29,10.0,SSE,11.5,-,N/A,,Overcast,160,2013-05-25 19:55:00
3:15 PM,61.5,45.3,55,30.29,10.0,SE,8.1,-,N/A,,Overcast,140,2013-05-25 20:15:00
3:35 PM,62.2,45.3,54,30.29,10.0,South,9.2,-,N/A,,Overcast,170,2013-05-25 20:35:00
3:55 PM,61.9,45.1,54,30.29,10.0,SSE,13.8,17.3,N/A,,Overcast,160,2013-05-25 20:55:00
4:15 PM,62.6,44.6,52,30.28,10.0,SSE,13.8,19.6,N/A,,Mostly Cloudy,160,2013-05-25 21:15:00
4:35 PM,62.6,43.9,50,30.28,10.0,SE,11.5,19.6,N/A,,Mostly Cloudy,140,2013-05-25 21:35:00
4:55 PM,62.6,44.6,52,30.28,10.0,SSE,11.5,16.1,N/A,,Overcast,150,2013-05-25 21:55:00
5:15 PM,64.0,45.1,50,30.28,10.0,SSE,10.4,18.4,N/A,,Overcast,150,2013-05-25 22:15:00
5:35 PM,62.8,44.6,51,30.27,10.0,South,9.2,18.4,N/A,,Scattered Clouds,170,2013-05-25 22:35:00
5:55 PM,63.7,43.2,47,30.27,10.0,SSE,15.0,19.6,N/A,,Clear,150,2013-05-25 22:55:00
6:15 PM,63.0,43.0,48,30.26,10.0,SE,10.4,17.3,N/A,,Clear,140,2013-05-25 23:15:00
6:35 PM,63.0,41.9,46,30.26,10.0,SSE,9.2,18.4,N/A,,Clear,150,2013-05-25 23:35:00
6:55 PM,62.6,41.2,45,30.26,10.0,SE,11.5,-,N/A,,Clear,140,2013-05-25 23:55:00
7:15 PM,62.2,41.2,46,30.26,10.0,SSE,10.4,-,N/A,,Clear,160,2013-05-26 00:15:00
7:35 PM,61.2,40.6,47,30.27,10.0,SSE,10.4,-,N/A,,Clear,160,2013-05-26 00:35:00
7:55 PM,60.4,41.2,49,30.27,10.0,SSE,5.8,-,N/A,,Clear,150,2013-05-26 00:55:00
8:15 PM,59.0,41.5,52,30.26,10.0,SE,4.6,-,N/A,,Clear,140,2013-05-26 01:15:00
8:35 PM,58.5,41.0,52,30.26,10.0,SE,5.8,-,N/A,,Clear,140,2013-05-26 01:35:00
8:55 PM,57.2,41.0,55,30.26,10.0,ESE,4.6,-,N/A,,Clear,120,2013-05-26 01:55:00
9:15 PM,56.5,40.3,55,30.27,10.0,SE,3.5,-,N/A,,Clear,140,2013-05-26 02:15:00
9:35 PM,54.7,40.6,59,30.28,10.0,Calm,Calm,-,N/A,,Clear,0,2013-05-26 02:35:00
9:55 PM,50.9,41.4,70,30.27,10.0,Calm,Calm,-,N/A,,Scattered Clouds,0,2013-05-26 02:55:00
10:15 PM,50.9,41.2,69,30.28,10.0,Calm,Calm,-,N/A,,Mostly Cloudy,0,2013-05-26 03:15:00
10:35 PM,47.7,41.0,78,30.27,10.0,Calm,Calm,-,N/A,,Overcast,0,2013-05-26 03:35:00
10:55 PM,47.3,41.0,79,30.27,10.0,Calm,Calm,-,N/A,,Overcast,0,2013-05-26 03:55:00
11:15 PM,46.6,40.6,80,30.27,10.0,Calm,Calm,-,N/A,,Scattered Clouds,0,2013-05-26 04:15:00
11:35 PM,46.0,40.3,80,30.27,10.0,Calm,Calm,-,N/A,,Clear,0,2013-05-26 04:35:00
11:55 PM,43.2,39.4,86,30.27,10.0,Calm,Calm,-,N/A,,Clear,0,2013-05-26 04:55:00